Starlink 11101

operational
NORAD ID: 59715 Int'l Des: 2024-088 Owner: SPXS Country: US Constellation: starlink
LEOCIRCULAR

Über Starlink 11101

Beschreibung wird geladen...

Live-Position

3D-Globus wird geladen...

Nächste Überflüge

Höhenverlauf

Altitude vs Time

uPlot chart will show altitude changes over time

Zweizeiliger Elementsatz

1 59715U 24088H 25304.12374662 .00006522 00000-0 58630-4 0 9995
2 59715 53.1581 244.8941 0001183 71.6084 288.5063 15.69718605 85927
Epoch: 31. Okt. 2025 • Age: 32 hours

Aktueller Status

Höhe 364.4 km
Geschwindigkeit 7.70 km/s
Subsatellitenpunkt 49.05°N, 86.04°E
Startdatum 10. Mai 2024
Alter 1.4 years
Typ internet

Technische Details

Klassifizierung Payload
Masse 960.00 kg
Trockenmasse 910.00 kg
Gesamtmasse 960.00 kg
Länge 0.30 m
Durchmesser 4.10 m
Spannweite 29.00 m
Form Box + pan
Hersteller SPXS
Bus-Typ Starlink V2MD
Phasenstatus In Orbit
Besitzer/Staat SPXS/US

Große Konstellationen

Loading constellations...